[[{"header":{"parameterUnit":"m.s-1","parameterCategory":1,"la1":30.2991,"la2":30.254,"lo1":-89.0895,"lo2":-89.0444,"dy":0.0017,"dx":0.0017,"nx":28,"ny":28,"refTime":"2024-02-07T03:00:00:Z","depth":0,"parameterNumber":2,"parameterNumberName":"U-component_of_WINDS"},"data":[0,0,0,0,0,0,0,0,0,0,0,0,0,0,0,0,0,0,0,0,0,0,0,0,0,0,0,0,0,0,0,0,0,0,0,0,0,0,0,0,0,0,0,0,0,0,0,0,0,0,0,0,0,0,0,0,0,0,-3.8866,-3.8868,0,-3.9099,-3.9102,-3.9104,-3.9144,-3.9142,-3.914,-3.9138,-3.9375,-3.9383,-3.9391,0,0,0,0,0,0,0,0,0,0,0,0,0,-3.8456,-3.8463,-3.8866,-3.8869,-3.8872,-3.9099,-3.9102,-3.9105,-3.9144,-3.9142,-3.9139,-3.9137,-3.9372,-3.9382,-3.9392,0,0,0,0,0,0,0,0,0,0,0,0,0,-3.8656,-3.8466,-3.8865,-3.8918,-3.8926,-3.9098,-3.9102,-3.9106,-3.9145,-3.9142,-3.9139,-3.9136,-3.9369,-3.9381,-3.9393,-3.9529,0,0,-3.9431,-3.9436,0,0,0,0,0,0,0,0,-3.8645,-3.8671,-3.8908,-3.8915,-3.8923,-3.9089,-3.9045,-3.9248,-3.9145,-3.9061,-3.9138,-3.9134,-3.9282,-3.9302,-3.9352,-3.954,-3.955,-3.9432,-3.9439,-3.9444,-3.9448,0,0,0,0,0,0,0,-3.8631,-3.8661,-3.8958,-3.8911,-3.8921,-3.8931,-3.8956,-3.9083,-3.9186,-3.9068,-3.9072,-3.9099,-3.9286,-3.934,-3.9358,-3.9553,-3.9431,-3.9442,-3.945,-3.9455,-3.9869,-3.9872,0,0,0,0,0,0,-3.8607,-3.8649,-3.8951,-3.8965,-3.8774,-3.8941,-3.8969,-3.9039,-3.9184,-3.9204,-3.9101,-3.91,-3.932,-3.9343,-3.9366,-3.9536,-3.9444,-3.9456,-3.9463,-3.9865,-3.987,-3.9873,0,0,0,0,0,0,-3.8598,-3.8634,-3.8941,-3.8808,-3.8848,-3.8951,-3.9029,-3.9045,-3.9099,-3.9209,-3.9228,-3.9137,-3.9319,-3.9349,-3.9489,-3.9545,-3.9461,-3.9473,-3.9861,-3.9866,-3.9872,-3.9876,0,0,0,0,0,0,-3.8586,-3.863,-3.8682,-3.8809,-3.8855,-3.9059,-3.9033,-3.9052,-3.912,-3.9121,-3.9248,-3.9266,-3.9319,-3.9471,-3.9501,-3.956,-3.9482,-3.9856,-3.9863,-3.987,-3.9872,-3.9881,-3.989,0,0,0,0,0,-3.8572,-3.8673,-3.8684,-3.872,-3.8922,-3.9062,-3.9089,-3.9148,-3.9124,-3.9178,-3.925,-3.9262,-3.9535,-3.9484,-3.9519,-3.9583,-3.9853,-3.9861,-3.9869,-3.9868,-3.9879,-3.9889,0,0,0,0,0,0,-3.8547,-3.869,-3.8704,-3.885,-3.8944,-3.9069,-3.9137,-3.9158,-3.926,-3.9256,-3.9325,-3.9353,-3.949,-3.9551,-3.9493,-3.9724,-3.9692,-3.9708,-3.9679,-3.9691,-3.97,-3.9682,-3.9492,0,0,0,0,0,-3.8559,-3.8661,-3.8781,-3.8897,-3.8944,-3.9033,-3.9096,-3.9134,-3.9234,-3.9274,-3.9355,-3.9452,-3.956,-3.9629,-3.9734,-3.9882,-3.9911,-3.9943,-3.9952,-3.9959,-3.9971,-4.0057,-4.0073,-3.99,-3.99,-3.99,0,0,-3.8583,-3.8674,-3.8734,-3.8895,-3.8972,-3.9077,-3.9066,-3.9176,-3.9255,-3.929,-3.9428,-3.9492,-3.9605,-3.975,-3.9818,-3.9805,-4.0026,-3.997,-3.9974,-3.9983,-4.0067,-4.0083,-4.0098,-3.9906,-3.9905,-3.9904,0,0,-3.8682,-3.8761,-3.8868,-3.8947,-3.9065,-3.9125,-3.9151,-3.9274,-3.9318,-3.9458,-3.9488,-3.9584,-3.9767,-3.9847,-3.9912,-4.0047,-4.0063,-4.008,-4.0126,-4.0209,-4.0222,-4.0235,-4.0284,-4.0301,-4.0092,-4.0092,-4.0092,0,-3.8697,-3.8857,-3.892,-3.9032,-3.9102,-3.9142,-3.9252,-3.9325,-3.9471,-3.952,-3.9504,-3.9738,-3.9816,-3.9982,-4.0016,-4.0066,-4.0099,-4.0064,-4.0215,-4.0229,-4.0241,-4.0289,-4.0307,-4.0093,-4.0093,-4.0093,-4.0093,0,-3.8871,-3.8981,-3.9054,-3.9196,-3.9276,-3.9385,-3.9467,-3.954,-3.9573,-3.9634,-3.9778,-3.9875,-4.0001,-4.0044,-4.0076,-4.0216,-4.0205,-4.0201,-4.017,-4.0258,-4.0304,-4.0323,-4.0095,-4.0094,-4.0094,-4.0094,0,0,-3.8956,-3.9136,-3.9162,-3.9229,-3.9365,-3.9452,-3.9565,-3.9691,-3.9753,-3.9854,-3.9951,-4.0109,-4.0108,-4.0181,-4.0223,-4.0296,-4.04,-4.0284,-4.0288,-4.0303,-4.0563,-4.0564,-4.0584,-4.0413,-4.0416,-4.0419,-4.0554,0,-3.9071,-3.9274,-3.9337,-3.9507,-3.9612,-3.9654,-3.9753,-3.9848,-3.991,-4.0008,-4.0077,-4.0187,-4.0177,-4.0222,-4.0297,-4.0371,-4.0453,-4.0363,-4.0505,-4.0509,-4.0474,-4.0609,-4.0609,-4.0731,-4.0572,-4.0575,-4.0578,0,-3.9231,-3.9337,-3.9518,-3.9645,-3.9691,-3.9779,-3.9902,-3.9995,-4.0105,-4.0145,-4.023,-4.0268,-4.039,-4.0354,-4.0524,-4.0461,-4.0524,-4.057,-4.0576,-4.059,-4.0547,-4.0627,-4.0771,-4.079,-4.0607,-4.0604,-4.0602,0,-3.9276,-3.9465,-3.9598,-3.9654,-3.9805,-3.9866,-3.9932,-4.0039,-4.0112,-4.022,-4.0268,-4.0388,-4.0454,-4.0547,-4.0616,-4.0583,-4.0781,-4.075,-4.0819,-4.0817,-4.0857,-4.0853,-4.1013,-4.0898,-4.0898,-4.0897,-4.0897,0,-3.9397,-3.9506,-3.9621,-3.9703,-3.9828,-3.9901,-4.0023,-4.0091,-4.0187,-4.0284,-4.0328,-4.0418,-4.0505,-4.0608,-4.0663,-4.0797,-4.0826,-4.0863,-4.0876,-4.0859,-4.0854,-4.0899,-4.0893,-4.0902,-4.0901,-4.09,-4.0899,0,-3.9467,-3.9548,-3.9697,-3.9829,-3.9866,-3.9952,-4.0066,-4.0148,-4.0214,-4.0336,-4.037,-4.0472,-4.0596,-4.0676,-4.0832,-4.087,-4.1017,-4.1027,-4.0979,-4.0986,-4.105,-4.1043,-4.1244,-4.1275,-4.1139,-4.114,-4.1141,0,-3.9539,-3.9624,-3.9767,-3.9836,-3.9903,-4.0013,-4.0088,-4.0165,-4.0242,-4.0377,-4.0444,-4.0571,-4.0676,-4.0872,-4.0961,-4.1082,-4.1097,-4.1159,-4.1115,-4.1096,-4.1098,-4.1092,-4.1102,-4.1165,-4.1167,-4.1167,-4.1168,0,-3.9657,-3.9694,-3.9802,-3.9925,-4.0015,-4.0115,-4.0215,-4.0269,-4.0364,-4.0449,-4.0577,-4.0659,-4.0821,-4.0947,-4.1077,-4.1146,-4.1174,-4.1182,-4.1205,-4.1187,-4.1156,-4.1175,-4.0999,-4.1176,-4.1176,-4.1175,-4.1175,-4.1174,-3.9731,-3.981,-3.9924,-4.0044,-4.0128,-4.0222,-4.0307,-4.0385,-4.0493,-4.0631,-4.0671,-4.0805,-4.0917,-4.1096,-4.1168,-4.1275,-4.1267,-4.1299,-4.1307,-4.1314,-4.1315,-4.114,-4.1298,-4.1298,-4.1298,-4.1298,-4.1298,0,-3.9852,-3.9929,-4.0038,-4.0179,-4.0274,-4.0294,-4.0407,-4.0485,-4.0602,-4.0705,-4.081,-4.0958,-4.1082,-4.1183,-4.1311,-4.1378,-4.1394,-4.1409,-4.1404,-4.142,-4.1314,-4.1282,-4.1394,-4.1394,-4.1394,-4.1394,-4.1394,-4.1394,-3.9926,-4.0062,-4.0114,-4.0293,-4.037,-4.0502,-4.0565,-4.0653,-4.0736,-4.0901,-4.1005,-4.107,-4.1174,-4.1311,-4.1426,-4.1453,-4.1498,-4.1511,-4.154,-4.1438,-4.1427,-4.1417,-4.1387,-4.152,-4.152,-4.1638,-4.1639,-4.1639]},{"header":{"parameterUnit":"m.s-1","parameterCategory":1,"la1":30.2991,"la2":30.254,"lo1":-89.0895,"lo2":-89.0444,"dy":0.0017,"dx":0.0017,"nx":28,"ny":28,"refTime":"2024-02-07T03:00:00:Z","depth":0,"parameterNumber":3,"parameterNumberName":"V-component_of_WINDS"},"data":[0,0,0,0,0,0,0,0,0,0,0,0,0,0,0,0,0,0,0,0,0,0,0,0,0,0,0,0,0,0,0,0,0,0,0,0,0,0,0,0,0,0,0,0,0,0,0,0,0,0,0,0,0,0,0,0,0,0,2.6019,2.6022,0,2.6302,2.6306,2.6309,2.6385,2.6383,2.6382,2.638,2.6664,2.6673,2.6682,0,0,0,0,0,0,0,0,0,0,0,0,0,2.5544,2.5552,2.6019,2.6023,2.6026,2.6302,2.6306,2.631,2.6385,2.6383,2.6381,2.6379,2.6661,2.6672,2.6683,0,0,0,0,0,0,0,0,0,0,0,0,0,2.578,2.5555,2.6018,2.6097,2.6107,2.6301,2.6306,2.6311,2.6386,2.6383,2.6381,2.6378,2.6657,2.6671,2.6684,2.6818,0,0,2.6726,2.6732,0,0,0,0,0,0,0,0,2.5767,2.5798,2.6082,2.6092,2.6104,2.6306,2.6242,2.6481,2.6386,2.628,2.638,2.6377,2.6546,2.6569,2.6627,2.6831,2.6843,2.6727,2.6735,2.6741,2.6745,0,0,0,0,0,0,0,2.575,2.5786,2.6131,2.6086,2.6099,2.6119,2.6149,2.6288,2.6423,2.6289,2.6295,2.6328,2.6552,2.6614,2.6635,2.6848,2.6727,2.6739,2.6747,2.6752,2.7182,2.7185,0,0,0,0,0,0,2.5721,2.5772,2.6122,2.6139,2.5926,2.6129,2.6164,2.6243,2.6422,2.6447,2.633,2.633,2.6592,2.6619,2.6645,2.6818,2.6741,2.6754,2.6762,2.7179,2.7183,2.7186,0,0,0,0,0,0,2.571,2.5751,2.6111,2.5958,2.6005,2.614,2.6229,2.625,2.6313,2.6453,2.6477,2.6369,2.6591,2.6626,2.6776,2.6828,2.676,2.6772,2.7175,2.718,2.7184,2.7161,0,0,0,0,0,0,2.5696,2.5747,2.5799,2.5958,2.6013,2.6237,2.6232,2.6258,2.6337,2.634,2.6496,2.6519,2.6592,2.6756,2.679,2.6846,2.6783,2.7171,2.7177,2.7183,2.7158,2.7164,2.717,0,0,0,0,0,2.5679,2.5778,2.5801,2.5843,2.6081,2.624,2.6271,2.6354,2.6341,2.6395,2.6486,2.6514,2.6817,2.677,2.681,2.687,2.7168,2.7175,2.7182,2.7155,2.7163,2.717,0,0,0,0,0,0,2.5618,2.58,2.5828,2.5982,2.6095,2.6253,2.6323,2.636,2.6478,2.6476,2.6572,2.6607,2.6752,2.6826,2.6771,2.7013,2.6993,2.7008,2.6959,2.6968,2.6974,2.6953,2.6794,0,0,0,0,0,2.5623,2.5738,2.5891,2.6012,2.6068,2.6186,2.6258,2.6314,2.6434,2.6482,2.6584,2.6698,2.6821,2.6898,2.7017,2.7169,2.7206,2.7231,2.7237,2.7242,2.7254,2.7345,2.7358,2.721,2.721,2.721,0,0,2.5633,2.5747,2.5813,2.6003,2.6097,2.6215,2.6225,2.6348,2.6437,2.6499,2.665,2.6729,2.6864,2.7017,2.709,2.7083,2.7304,2.7251,2.7253,2.7263,2.7353,2.7367,2.738,2.7215,2.7214,2.7213,0,0,2.5713,2.581,2.5924,2.602,2.6165,2.6244,2.6271,2.6425,2.6481,2.6634,2.6686,2.6792,2.6998,2.7094,2.717,2.7293,2.7325,2.7329,2.7361,2.7449,2.746,2.7471,2.7518,2.7534,2.7341,2.7341,2.7341,0,2.5707,2.5887,2.5977,2.61,2.6183,2.625,2.6368,2.6456,2.6631,2.6687,2.6679,2.6944,2.7039,2.7218,2.7249,2.7307,2.7343,2.7311,2.7452,2.7464,2.7475,2.7521,2.7538,2.734,2.734,2.734,2.7341,0,2.5875,2.5999,2.6074,2.6246,2.6338,2.6457,2.6566,2.6648,2.6697,2.6777,2.6934,2.7052,2.7199,2.7245,2.7291,2.7433,2.7425,2.7433,2.7415,2.7488,2.7533,2.7551,2.734,2.734,2.734,2.734,0,0,2.592,2.6145,2.6171,2.6253,2.642,2.6518,2.6642,2.6789,2.6859,2.6979,2.7086,2.7263,2.7274,2.7359,2.7418,2.7494,2.759,2.7494,2.7499,2.751,2.7757,2.7751,2.7769,2.7612,2.7616,2.7619,2.7746,0,2.6022,2.6247,2.6335,2.6518,2.6637,2.6705,2.6814,2.6929,2.7008,2.712,2.7207,2.7332,2.7335,2.7388,2.7467,2.7561,2.7641,2.7553,2.7714,2.7718,2.7679,2.7793,2.7786,2.79,2.7764,2.7767,2.7769,0,2.617,2.6297,2.6493,2.6652,2.6704,2.68,2.6946,2.7051,2.7184,2.7237,2.7337,2.7392,2.7526,2.7501,2.7688,2.7626,2.7698,2.7754,2.7761,2.778,2.7748,2.7816,2.7938,2.7956,2.7797,2.7795,2.7793,0,2.6187,2.6406,2.6553,2.662,2.6808,2.6875,2.6956,2.7087,2.7172,2.7298,2.7355,2.7493,2.757,2.7676,2.7769,2.7741,2.7949,2.793,2.7997,2.7995,2.8037,2.8033,2.8174,2.808,2.808,2.808,2.8079,0,2.6293,2.6411,2.6564,2.6654,2.679,2.6891,2.7023,2.7108,2.7226,2.7335,2.7401,2.7502,2.7618,2.7734,2.7806,2.7953,2.7985,2.8032,2.8051,2.8028,2.8022,2.8076,2.8071,2.8084,2.8083,2.8082,2.8081,0,2.6333,2.6441,2.6607,2.6773,2.6818,2.6911,2.7054,2.7145,2.723,2.7368,2.7406,2.7538,2.7679,2.7783,2.7963,2.8012,2.8169,2.8186,2.8125,2.8135,2.8197,2.8191,2.8378,2.8409,2.8293,2.8294,2.8294,0,2.6394,2.6488,2.6666,2.6746,2.6828,2.6954,2.7043,2.7147,2.7236,2.7399,2.7472,2.7618,2.7741,2.7963,2.8075,2.8214,2.8237,2.8293,2.8258,2.8234,2.8241,2.8235,2.8246,2.8298,2.8298,2.8299,2.83,0,2.6492,2.6542,2.6668,2.6815,2.692,2.7039,2.7159,2.722,2.7347,2.7444,2.7592,2.7687,2.7875,2.8021,2.8173,2.8256,2.83,2.8311,2.8334,2.8312,2.8274,2.8298,2.8141,2.8305,2.8305,2.8304,2.8304,2.8304,2.6546,2.6635,2.6776,2.6916,2.7019,2.7131,2.7228,2.7327,2.7452,2.7615,2.7669,2.7822,2.7958,2.8168,2.8254,2.8375,2.8374,2.8406,2.8415,2.8422,2.8423,2.8254,2.8403,2.8403,2.8403,2.8403,2.8403,0,2.665,2.6746,2.6873,2.7043,2.7154,2.7189,2.7326,2.7416,2.7551,2.7675,2.7797,2.7968,2.8111,2.8236,2.8385,2.8459,2.8483,2.8494,2.849,2.851,2.8414,2.838,2.8473,2.8473,2.8473,2.8473,2.8473,2.8473,2.6716,2.687,2.6937,2.7143,2.7239,2.7391,2.7467,2.7573,2.7673,2.7863,2.7984,2.8066,2.8192,2.8351,2.8485,2.8518,2.8571,2.8578,2.8616,2.8524,2.8516,2.8508,2.8477,2.8588,2.8588,2.8703,2.8704,2.8704]}]]